TIME,DELAY(SENSOR),PRES,OXYGEN,RAWTEMP,T(OPTODE),TCPHASE,FLUOR,BETA(BETA700),BETA(BETA412),BETA(BETA440),CDOM,C(CSC),ED(ED412.20),ED(ED444.00),ED(ED489.60),ED(ED554.30),LU(LU412.10),LU(LU443.90),LU(LU489.70),LU(LU554.70),COMP,TILTX,TILTY,CHECK
1353900273,5808,874.6300048828125000,33.9263496398925800,556.3018188476562000,4.6004538536071780,56.4150199890136700,56,100,100,78,81,15553,0,0,0,0,2147120914,2147776027,2147571254,2147568630,2167,3,13,43265
1353903869,5809,947.9000244140625000,40.0066795349121100,563.9752197265625000,4.3626332283020020,55.5521011352539060,55,98,101,77,82,15552,0,0,0,0,2147120210,2147778980,2147572114,2147571995,129,3,13,47367
1353907469,5809,967.6500244140625000,39.5432586669921900,565.4954833984375000,4.3154559135437010,55.6392097473144500,55,98,101,78,82,15553,0,0,0,0,2147119442,2147778733,2147576246,2147570715,121,3,13,16415
1353911069,5810,994.4099731445312000,40.9665298461914060,568.6060791015625000,4.2188677787780760,55.4557685852050800,55,98,100,77,83,15550,0,0,0,0,2147122889,2147779017,2147572434,2147571382,182,3,13,17820
1353914669,5809,992.9299926757812000,41.1087989807128900,568.8939819335938000,4.2099227905273440,55.4381599426269500,55,98,101,78,82,15551,0,0,0,0,2147122934,2147774363,2147572562,2147570313,3566,3,13,58503
1353918269,5811,1000.6599731445312000,40.6370887756347660,568.6041870117188000,4.2189288139343260,55.5075416564941400,55,99,101,78,81,15552,0,0,0,0,2147119917,2147770011,2147571154,2147571638,3526,3,13,44859
1353921869,5810,1007.6599731445312000,40.1552391052246100,568.8823852539062000,4.2102851867675780,55.5831718444824200,56,99,101,77,83,15549,0,0,0,0,2147122130,2147776713,2147570614,2147572571,3562,3,13,26557
1353925469,5808,1012.8400268554688000,40.3212890625000000,568.3937988281250000,4.2254638671875000,55.5525093078613300,55,99,100,79,82,15549,0,0,0,0,2147120886,2147773266,2147572854,2147570212,21,3,13,10116
1353929069,5811,1005.7000122070312000,40.1261405944824200,568.3897094726562000,4.2255902290344240,55.5769615173339840,55,98,101,78,82,15547,0,0,0,0,2147120338,2147775094,2147575296,2147569398,57,3,13,10919
1353932669,5810,1001.4799804687500000,40.1201210021972660,568.2871704101562000,4.2287731170654300,55.5777893066406250,55,98,100,78,82,15548,0,0,0,0,2147119680,2147773156,2147572361,2147572004,290,3,13,12256
1353936269,5810,1003.3099975585938000,40.4937210083007800,569.6660766601562000,4.1859359741210940,55.5374183654785160,55,98,101,78,82,15549,0,0,0,0,2147121115,2147773668,2147572992,2147567442,3494,3,13,18987
1353939869,5809,1002.4000244140625000,40.4170303344726560,569.7100219726562000,4.1845722198486330,55.5490303039550800,55,101,100,78,82,15549,0,0,0,0,2147125558,2147772873,2147574226,2147568804,3211,2,13,61505
1353943469,5810,1000.5599975585938000,42.1254882812500000,571.2191162109375000,4.1376719474792480,55.3120994567871100,55,98,102,78,82,15542,0,0,0,0,2147122852,2147774144,2147573769,2147570861,77,3,13,53077
1353947069,5809,1009.3800048828125000,42.4965095520019500,570.2357788085938000,4.1682319641113280,55.2500801086425800,55,98,101,78,81,15547,0,0,0,0,2147124571,2147774646,2147577636,2147571282,3088,3,13,27702
1353950669,5809,1004.6400146484375000,42.3137016296386700,570.9846191406250000,4.1449599266052250,55.2848701477050800,56,102,100,77,82,15545,0,0,0,0,2147122459,2147777737,2147573531,2147569124,316,3,13,20896
1353954269,5810,1005.0499877929688000,42.3431091308593750,571.0664062500000000,4.1424179077148440,55.2799110412597660,54,98,101,77,82,15547,0,0,0,0,2147121746,2147776219,2147569755,2147570496,182,3,13,33432
1353957869,5810,1006.3599853515625000,42.2080802917480500,571.0238037109375000,4.1437420845031740,55.3018989562988300,54,101,100,76,82,15550,0,0,0,0,2147126784,2147774674,2147574802,2147568868,94,3,13,55805
1353961469,5810,1007.4099731445312000,42.3532409667968750,570.4160766601562000,4.1626281738281250,55.2766990661621100,54,100,101,78,82,15545,0,0,0,0,2147123876,2147776292,2147572562,2147569462,362,3,13,47589
1353965069,5810,1017.0800170898438000,41.3112983703613300,569.0734252929688000,4.2043509483337400,55.4127502441406250,55,102,100,78,83,15548,0,0,0,0,2147122093,2147779264,2147572900,2147570560,78,3,13,5444
1353968669,5809,1015.2500000000000000,41.0260581970214840,569.7211303710938000,4.1842269897460940,55.4628486633300800,55,98,100,78,83,15544,0,0,0,0,2147120594,2147778294,2147574765,2147569984,591,3,13,35299
1353972269,5809,1009.6500244140625000,41.9612693786621100,570.7965698242188000,4.1508049964904785,55.3365898132324200,55,100,100,78,83,15547,0,0,0,0,2147122797,2147774500,2147576192,2147569782,440,3,13,46790
1353975869,5810,1014.2000122070312000,41.8291587829589840,570.0722045898438000,4.1733169555664060,55.3434486389160160,54,99,100,78,83,15538,0,0,0,0,2147121618,2147771766,2147575771,2147573394,40,3,13,26291
1353979469,5807,1008.4099731445312000,41.7310409545898440,570.8585815429688000,4.1488780975341800,55.3704185485839840,55,97,100,78,82,15546,0,0,0,0,2147125275,2147771702,2147575442,2147570349,667,2,13,19015
1353983069,5809,1009.5700073242188000,41.1336593627929700,570.4309082031250000,4.1621699333190920,55.4529800415039060,55,99,100,78,82,15543,0,0,0,0,2147121417,2147775954,2147576164,2147571931,307,3,13,35785
1353986669,5810,1024.9699707031250000,42.3143310546875000,570.3817138671875000,4.1636981964111330,55.2805900573730500,54,98,103,77,82,15544,0,0,0,0,2147122605,2147775689,2147575826,2147571300,3527,3,13,45755
1353990269,5808,1021.4799804687500000,41.1251487731933600,569.3018188476562000,4.1972579956054690,55.4379196166992200,56,99,100,79,82,15543,0,0,0,0,2147123245,2147771776,2147576219,2147573732,3254,3,13,6306
1353993869,5805,1015.7800292968750000,40.2423896789550800,569.3590087890625000,4.1954779624938965,55.5734291076660160,55,103,99,78,83,15544,0,0,0,0,2147119698,2147772041,2147575716,2147571145,3239,2,13,19641
1353997469,5810,1018.0100097656250000,41.0969314575195300,570.4661254882812000,4.1610760688781740,55.4541893005371100,55,98,100,78,82,15542,0,0,0,0,2147123684,2147772635,2147572498,2147568338,1065,3,13,22922
1354001069,5811,1018.4500122070312000,41.2943687438964840,569.5490112304688000,4.1895751953125000,55.4148597717285160,55,98,99,78,82,15542,0,0,0,0,2147124489,2147776630,2147576512,2147569234,131,2,13,45297
1354004669,5812,1022.7800292968750000,40.9937705993652340,569.4884033203125000,4.1914582252502440,55.4605102539062500,54,99,101,78,83,15540,0,0,0,0,2147125321,2147772681,2147572068,2147572434,3125,3,13,12159
1354008269,5809,1019.0499877929688000,39.6132507324218750,568.8673706054688000,4.2107520103454590,55.6637611389160160,53,101,102,78,81,15540,0,0,0,0,2147122496,2147779108,2147575158,2147573440,384,3,13,3820
1354011869,5809,1015.5100097656250000,40.5389289855957000,569.9713134765625000,4.1764531135559080,55.5328407287597660,54,97,101,79,81,15544,0,0,0,0,2147124187,2147776246,2147574482,2147571145,3492,2,13,16917
1354015469,5808,1014.2299804687500000,40.8110084533691400,570.1209106445312000,4.1718029975891110,55.4929389953613300,55,98,100,78,82,15538,0,0,0,0,2147121216,2147769810,2147579346,2147568603,172,3,13,25809
1354019069,5811,1012.2399902343750000,41.6712608337402340,570.5784301757812000,4.1575851440429690,55.3771095275878900,55,101,101,78,82,15541,0,0,0,0,2147121782,2147775360,2147570596,2147570770,29,3,13,58500
1354022669,5809,1007.5800170898438000,42.3404617309570300,571.3566284179688000,4.1333980560302730,55.2826194763183600,55,98,101,77,82,15540,0,0,0,0,2147125348,2147774016,2147574061,2147567469,3386,3,13,21506
1354026269,5808,1006.7899780273438000,42.8581314086914060,572.6583862304688000,4.0929198265075680,55.2246284484863300,54,100,100,81,82,15539,0,0,0,0,2147123328,2147770304,2147571062,2147572690,4,3,13,23558
1354029869,5809,1010.5399780273438000,43.2774314880371100,572.7299804687500000,4.0906910896301270,55.1625099182128900,55,102,100,78,82,15538,0,0,0,0,2147125421,2147774262,2147572900,2147569645,223,3,13,48312
1354033469,5810,1016.3400268554688000,42.9512100219726560,572.3192749023438000,4.1034641265869140,55.2038307189941400,55,99,101,78,82,15541,0,0,0,0,2147120768,2147774857,2147572160,2147568009,174,3,13,24960
1354037069,5810,1014.5100097656250000,41.9528007507324200,571.7769165039062000,4.1203308105468750,55.3450393676757800,54,99,100,78,82,15538,0,0,0,0,2147120758,2147774098,2147572800,2147566985,233,3,13,39336
1354040669,5811,1014.2700195312500000,42.2271003723144500,571.2758178710938000,4.1359081268310550,55.3027915954589840,55,99,100,76,82,15536,0,0,0,0,2147124699,2147773110,2147572809,2147568228,10,3,13,973
1354044269,5810,1018.2399902343750000,41.7387390136718750,570.7260131835938000,4.1529979705810550,55.3681488037109400,54,98,100,78,82,15535,0,0,0,0,2147122706,2147774902,2147575131,2147569654,169,3,13,22950
1354044368,5809,1018.2199707031250000,41.7333106994628900,570.6140747070312000,4.1564750671386720,55.3691787719726560,55,97,98,78,83,15538,0,0,0,0,2147121106,2147771017,2147577728,2147569005,135,3,13,53139
